Tracking 19832 objects as of 24-Aug-2019
HD Live streaming from Space Station
objects crossing your sky now

TRANSIT 4B

Track TRANSIT 4B now!
10-day predictions
TRANSIT 4B is classified as:


NORAD ID: 202
Int'l Code: 1961-031A
Perigee: 955.1 km
Apogee: 1,104.9 km
Inclination: 32.4 °
Period: 105.6 minutes
Semi major axis: 7401 km
RCS: 2.1391 m2 (large)
Launch date: November 15, 1961
Source: United States (US)
Launch site: AIR FORCE EASTERN TEST RANGE (AFETR)
aabbcc
Your satellite tracking list
Your tracking list is empty




NASA's NSSDC Master Catalog

Two Line Element Set (TLE):
1   202U 61031A   19235.96177762 +.00000024 +00000-0 +43091-5 0  9998
2   202 032.4362 226.9780 0101214 031.2476 329.4113 13.63528137881023
Source of the keplerian elements: AFSPC